EHI
0 0 0 0 0 0 0 0 0 0 0 0 0 0 0 0 0 0 0 0 0 0 0 0 0 0 0 0 0 0 0 0 0 0 0 0 0 0 0 0 0 0 0
0 0 0 0 0 0 0 0 0 0 0 0 0 0 0 0 0 0 0 0 0 0 0 0 0 0 0 0 0 0 0 0 0 0 0 0 0 0 0 0 0 0 0
0 0 0 0 0 0 0 0 0 0 0 0 0 0 0 0 0 0 0 0 0 0 0 0 0 0 0 0 0 0 0 0 0 0 0 0 0 0 0 0 0 0 0
0 0 0 0 0 0 0 0 0 0 0 0 0 0 0 0 0 0 0 0 0 0 0 0 0 0 0 0 0 0 0 0 0 0 0 0 0 0 0 0 0 0 0
0 0 0 0 0 0 0 0 0 0 0 0 0 0 0 0 0 0 0 0 0 0 0 0 0 0 0 0 0 0 0 0 0 0 0 0 0 0 0 0 0 0 0
0 0 0 0 0 0 0 0 0 0 0 0 0 0 0 0 0 0 0 0 0 0 0 0 0 0 0 0 0 0 0 0 0 0 0 0 0 0 0 0 0 0 0
0 0 0 0 0 0 0 0 0 0 0 0 0 0 0 0 0 0 0 0 0 0 0 0 0 0 0 0 0 0 0 0 0 0 0 0 0 0 0 0 0 0 0
0 0 0 0 0 0 0 0 0 0 0 0 0 0 0 0 0 0 0 0 0 0 0 0 0 0 0 0 0 0 0 0 0 0 0 0 0 0 0 0 0 0 0
0 0 0 0 0 0 0 0 0 0 0 0 0 0 0 0 0 0 0 0 0 0 0 0 0 0 0 0 0 0 0 0 0 0 0 0 0 0 0 0 0 0 0
0 0 0 0 0 0 0 0 0 0 0 0 0 0 0 0 0 0 0 0 0 0 0 0 0 0 0 0 0 0 0 0 0 0 0 0 0 0 0 0 0 0 0
0 0 0 0 0 0 0 0 0 0 0 0 0 0 0 0 0 0 0 0 0 0 0 0 0 0 0 0 0 0 0 0 0 0 0 0 0 0 0 0 0 0 0
0 0 0 0 0 0 0 0 0 0 0 0 0 0 0 0 0 0 0 0 0 0 0 0 0 0 0 0 0 0 0 0 0 0 0 0 0 0 0 0 0 0 0
0 0 0 0 0 0 0 0 0 0 0 0 0 0 0 0 0 0 0 0 0 0 0 0 0 0 0 0 0 0 0 0 0 0 0 0 0 0 0 0 0 0 0
0 0 0 0 0 0 0 0 0 0 0 0 0 0 0 0 0 0 0 0 0 0 0 0 0 0 0 0 0 0 0 0 0 0 0 0 0 0 0 0 0 0 0
0 0 0 0 0 0 0 0 0 0 0 0 0 0 0 0 0 0 0 0 0 0 0 0 0 0 0 0 0 0 0 0 0 0 0 0 0 0 0 0 0 0 0
0 0 0 0 0 0 0 0 0 0 0 0 0 0 0 0 0 0 0 0 0 0 0 0 0 0 0 0 0 0 0 0 0 0 0 0 0 0 0 0 0 0 0
0 0 0 0 0 0 0 0 0 0 0 0 0 0 0 0 0 0 0 0 0 0 0 0 0 0 0 0 0 0 0 0 0 0 0 0 0 0 0 0 0 0 0
0 0 0 0 0 0 0 0 0 0 0 0 0 0 0 0 0 0 0 0 0 0 0 0 0 0 0 0 0 0 0 0 0 0 0 0 0 0 0 0 0 0 0
0 0 0 0 0 0 0 0 0 0 0 0 0 0 0 0 0 0 0 0 0 0 0 0 0 0 0 0 0 0 0 0 0 0 0 0 0 0 0 0 0 0 0
0 0 0 0 0 0 0 0 0 0 0 0 0 0 0 0 0 0 0 0 0 0 0 0 0 0 0 0 0 0 0 0 0 0 0 0 0 0 0 0 0 0 0
0 0 0 0 0 0 0 0 0 0 0 0 0 0 0 0 0 0 0 0 0 0 0 0 0 0 0 0 0 0 0 0 0 0 0 0 0 0 0 0 0 0 0
0 0 0 0 0 0 0 0 0 0 0 0 0 0 0 0 0 0 0 0 0 0 0 0 0 0 0 0 0 0 0 0 0 0 0 0 0 0 0 0 0 0 0
0 0 0 0 0 0 0 0 0 0 0 0 0 0 0 0 0 0 0 0 0 0 0 0 0 0 0 0 0 0 0 0 0 0 0 0 0 0 0 0 0 0 0
0 0 0 0 0 0 0 0 0 0 0 0 0 0 0 0 0 0 0 0 0 0 0 0 0 0 0 0 0 0 0 0 0 0 0 0 0 0 0 0 0 0 0
0 0 0 0 0 0 0 0 0 0 0 0 0 0 0 0 0 0 0 0 0 0 0 0 0 0 0 0 0 0 0 0 0 0 0 0 0 0 0 0 0 0 0
0 0 0 0 0 0 0 0 0 0 0 0 0 0 0 0 0 0 0 0 0 0 0 0 0 0 0 0 0 0 0 0 0 0 0 0 0 0 0 0 0 0 0
Wind_Speed
6 5 5 5 5 4 4 3 4 4 3 3 3 3 3 2 2 2 3 3 3 2 2 2 2 3 2 2 2 2 2 3 4 4 3 3 4 4 3 4 5 6 5
6 6 6 5 5 5 4 4 4 3 3 3 2 3 2 2 3 3 3 2 3 3 3 3 2 1 2 2 2 2 2 3 4 5 4 3 4 4 4 6 5 5 5
7 7 6 6 6 5 5 4 4 4 3 3 3 3 2 2 2 2 2 3 3 3 3 3 3 3 2 1 2 2 2 2 3 4 4 3 4 4 4 5 6 4 6
8 7 7 6 6 6 5 4 5 4 4 4 4 3 3 3 3 3 2 3 3 2 3 3 3 4 4 3 2 2 3 3 3 4 4 4 4 4 4 4 4 4 5
9 8 7 7 6 5 5 5 6 6 6 5 5 5 4 4 3 4 3 4 4 3 3 3 2 4 6 5 4 4 3 3 3 4 4 4 4 4 4 4 5 5 6
10 9 8 7 7 7 6 6 6 6 6 6 7 6 5 4 2 4 7 6 5 5 4 3 2 4 4 5 5 5 6 6 5 4 4 5 6 5 4 5 5 5 5
10 9 8 8 7 7 6 6 7 7 7 7 7 7 7 6 6 7 9 8 7 6 5 4 3 3 4 5 5 7 8 8 8 8 8 7 7 6 6 7 6 6 7
11 10 8 8 7 7 7 7 7 7 6 6 7 7 7 6 7 9 9 10 8 7 7 6 6 5 4 5 6 6 6 6 5 7 7 7 7 7 7 7 8 8 9
11 10 9 8 7 7 7 7 6 5 6 6 6 6 7 6 7 8 9 8 8 8 7 7 6 6 2 3 7 7 7 5 5 8 9 9 10 10 9 7 7 6 7
10 9 8 7 6 6 5 5 4 4 5 5 5 5 6 6 3 5 8 7 8 7 6 6 6 6 2 5 7 6 7 6 6 5 8 9 9 9 10 9 7 6 6
9 8 7 6 6 4 3 3 3 3 4 4 4 4 4 4 2 3 6 7 7 7 5 5 3 6 6 7 8 7 6 7 8 7 6 6 5 5 5 5 6 6 7
9 8 7 6 5 4 3 2 2 2 3 3 3 3 2 1 1 0 3 6 8 7 5 4 1 4 5 6 6 4 5 7 6 6 5 5 5 5 4 5 6 7 8
10 9 7 7 5 4 4 3 2 1 1 1 2 2 2 2 1 1 2 3 5 5 3 3 3 1 3 5 3 3 5 5 4 5 5 5 5 5 6 5 7 7 8
11 10 8 7 7 5 3 2 1 0 0 1 1 2 2 2 4 4 2 1 3 4 2 3 4 2 2 1 1 2 2 3 4 4 5 5 5 5 5 5 5 5 6
11 9 8 7 7 6 5 4 3 5 5 3 2 2 3 3 6 8 6 4 3 3 1 1 1 1 1 0 1 2 2 2 3 4 4 5 5 5 5 4 4 5 5
11 10 8 7 7 6 7 7 9 8 9 10 9 6 5 6 6 7 8 8 6 4 1 2 2 2 2 2 2 3 3 3 4 4 4 5 5 5 6 5 5 5 6
12 10 8 8 8 7 7 7 7 7 7 8 9 9 8 7 6 6 6 6 6 3 3 3 3 3 3 3 3 3 3 4 4 4 4 5 5 6 6 6 6 6 6
12 10 9 8 7 7 7 6 6 6 6 5 6 7 6 7 7 6 3 1 4 4 4 4 3 3 3 3 3 3 4 4 4 4 5 5 5 6 6 6 6 7 8
12 9 9 8 8 7 7 6 6 5 5 4 4 5 4 3 4 3 2 2 3 3 3 3 3 3 3 3 3 4 4 4 5 5 5 6 6 6 6 6 7 8 8
10 12 11 9 9 8 7 7 6 6 5 4 3 3 3 2 1 2 2 2 2 2 2 2 2 3 3 3 4 4 5 5 5 5 6 6 6 6 7 8 8 8 8
11 12 13 10 9 8 8 7 7 6 5 4 3 3 2 0 1 1 1 1 2 2 2 2 3 3 3 4 4 5 6 6 6 6 6 7 7 8 8 8 9 9 9
12 12 11 10 9 9 8 7 7 6 6 5 4 5 4 3 1 1 1 1 2 2 3 3 4 4 4 5 6 6 7 7 7 7 8 8 8 9 9 9 10 10 10
12 13 12 10 9 10 8 8 7 6 6 5 4 4 4 3 2 2 2 2 3 3 3 4 5 5 5 5 6 6 7 8 8 9 10 10 10 10 10 11 13 13 13
13 13 12 11 10 10 9 8 7 7 6 5 4 4 3 2 2 3 3 3 3 4 4 5 6 8 9 8 7 7 7 7 9 9 13 12 12 12 12 12 13 15 14
13 13 12 11 10 10 9 8 8 7 6 5 4 3 3 3 3 3 3 4 5 5 6 7 6 7 10 11 11 9 7 8 8 10 12 12 14 15 15 15 14 15 15
13 13 11 10 9 9 8 8 7 7 6 5 4 3 3 3 3 3 4 4 5 6 6 6 8 10 12 11 11 10 10 10 11 12 12 12 14 14 15 14 18 16 17
Wind_Direction
220 224 229 230 237 238 247 257 266 269 262 268 287 293 306 315 323 337 330 343 328 341 337 344 342 338 309 295 279 265 258 269 276 286 291 300 296 295 302 294 286 273 252
216 218 225 223 227 236 231 241 251 260 275 271 273 277 288 305 318 326 319 314 322 327 331 328 333 340 309 302 289 275 274 269 275 290 296 301 299 306 300 293 286 277 276
208 217 221 220 225 232 231 227 244 246 253 247 243 266 274 281 286 280 289 299 304 309 318 320 328 318 295 297 284 284 282 276 276 280 289 300 291 298 304 292 284 285 282
202 214 219 219 221 228 230 231 237 235 240 250 256 260 267 270 267 268 276 284 287 287 290 294 305 305 302 298 285 283 284 277 273 275 283 288 289 296 290 295 299 297 288
204 212 219 220 218 225 227 230 235 237 240 242 253 254 254 260 270 288 280 277 282 284 272 271 291 324 330 313 310 306 295 282 278 279 282 285 287 296 300 309 301 303 290
206 213 212 218 216 221 229 229 231 237 242 240 246 249 253 249 198 255 277 273 273 274 277 273 251 237 242 245 272 294 301 294 295 285 282 284 292 295 298 294 298 303 296
207 212 209 216 219 226 227 229 232 237 239 241 244 246 249 242 203 230 245 270 270 273 277 274 271 267 259 260 228 231 240 239 257 282 284 286 292 297 295 289 287 289 285
206 208 208 211 218 222 226 232 235 238 238 241 247 249 250 245 212 230 237 249 256 257 256 261 261 262 258 283 277 267 270 256 247 256 275 286 293 297 292 287 290 286 282
203 204 205 207 214 221 227 237 242 245 246 245 244 249 253 247 204 221 236 247 248 251 248 247 253 257 195 244 268 272 276 271 228 234 266 278 287 280 275 273 267 269 282
198 198 199 205 210 216 227 242 241 240 250 256 252 255 260 267 193 209 241 251 251 251 246 240 222 250 242 227 257 268 276 288 294 271 250 245 255 251 234 247 262 269 277
185 185 187 193 200 207 218 225 237 243 254 259 261 258 263 280 241 207 241 259 259 259 254 246 220 193 237 242 259 273 296 306 295 289 288 288 281 275 261 251 252 258 267
169 174 177 180 183 178 184 200 219 236 242 256 267 275 282 279 325 339 256 260 287 271 266 267 235 162 228 243 253 294 308 287 280 286 288 291 295 295 297 299 287 273 266
166 167 169 166 162 165 169 171 182 206 254 282 297 310 330 345 30 186 242 253 262 266 282 28 42 131 234 224 214 279 276 270 286 292 295 301 306 308 305 298 289 281 276
168 167 166 166 158 152 147 149 141 118 300 329 348 348 355 5 6 358 341 266 208 224 232 141 152 161 239 331 225 231 273 316 314 303 306 306 307 302 296 298 297 300 293
167 166 164 159 153 146 124 77 80 62 35 22 32 19 4 21 27 10 354 360 357 14 359 120 124 134 134 61 357 358 343 333 319 318 312 309 310 308 306 305 299 299 291
167 166 162 157 154 147 134 112 62 73 75 64 46 32 70 51 33 37 40 39 37 14 358 82 63 46 34 23 9 358 354 352 342 332 327 323 318 315 312 308 301 296 296
170 165 161 160 157 158 155 150 140 118 98 82 68 55 55 55 52 49 48 54 47 30 60 59 50 38 29 21 12 0 355 355 346 338 336 334 330 325 320 318 316 310 305
167 159 158 158 159 161 160 160 157 157 152 135 104 78 68 63 54 42 11 22 71 58 54 49 42 32 21 11 3 357 350 346 344 341 339 336 333 328 325 323 321 321 316
162 160 160 156 157 156 156 157 157 156 151 145 142 127 117 120 108 52 1 47 55 51 46 38 23 10 5 360 355 345 339 335 333 329 330 328 326 323 322 321 317 317 310
160 153 155 156 157 157 160 161 160 159 158 156 152 140 147 171 127 92 68 48 41 38 25 14 1 346 341 336 329 323 320 319 321 320 321 319 318 315 314 313 312 311 309
157 156 161 162 162 162 164 165 163 164 163 159 148 108 19 227 95 52 24 16 0 350 343 335 326 322 321 318 315 312 311 312 314 313 313 312 311 309 307 305 305 304 305
161 161 168 165 162 165 165 165 165 165 166 166 160 153 177 229 233 270 295 306 313 312 314 309 307 310 310 308 307 307 306 307 309 310 309 307 305 303 301 299 299 301 301
163 162 164 163 162 157 167 168 169 171 174 177 179 183 192 216 236 263 282 295 301 301 303 300 298 299 300 301 301 299 300 304 309 310 307 302 300 297 295 294 294 294 293
163 163 162 162 163 167 172 171 173 175 180 183 189 197 208 224 248 268 281 289 292 294 296 297 296 298 300 301 298 295 299 312 314 307 304 299 295 292 290 289 288 287 287
164 163 164 164 166 169 172 173 175 177 182 190 197 204 218 236 255 268 278 286 292 293 298 298 295 297 300 301 300 302 324 327 311 305 303 295 290 288 286 285 284 284 283
163 162 163 163 166 169 171 173 177 180 185 191 201 214 229 248 265 276 284 289 295 297 298 298 300 304 306 302 307 321 322 310 303 297 296 292 288 284 285 283 283 281 281